CDT,Max TemperatureF,Mean TemperatureF,Min TemperatureF,Max Dew PointF,MeanDew PointF,Min DewpointF,Max Humidity, Mean Humidity, Min Humidity, Max Sea Level PressureIn, Mean Sea Level PressureIn, Min Sea Level PressureIn, Max VisibilityMiles, Mean VisibilityMiles, Min VisibilityMiles, Max Wind SpeedMPH, Mean Wind SpeedMPH, Max Gust SpeedMPH,PrecipitationIn, CloudCover, Events, WindDirDegrees
2014-8-1,91,73,55,58,55,48,93,56,24,30.14,30.07,30.04,10,10,9,12,5,,0.00,1,Thunderstorm,117
2014-8-2,94,76,58,60,54,49,87,52,23,30.14,30.08,30.00,10,10,7,16,6,23,0.00,0,,157
2014-8-3,97,79,60,61,55,49,83,49,19,30.14,30.03,29.94,10,10,10,10,7,,0.00,0,,158
2014-8-4,99,80,61,61,55,46,90,48,17,30.07,29.97,29.90,10,9,4,17,7,23,0.00,0,,122
2014-8-5,96,84,71,62,57,52,60,44,27,29.94,29.89,29.83,10,10,10,18,9,23,0.00,1,,197
2014-8-6,94,81,68,69,63,60,84,60,34,29.96,29.87,29.81,10,10,6,10,6,,0.40,1,Thunderstorm,10
2014-8-7,87,76,64,68,65,61,97,80,46,30.07,29.98,29.87,10,6,1,30,8,45,0.63,6,Rain-Thunderstorm,346
2014-8-8,89,75,61,66,63,60,97,74,39,30.02,29.94,29.86,10,9,2,28,7,40,0.30,1,Rain-Thunderstorm,189
2014-8-9,91,77,63,71,63,59,97,76,46,30.10,29.96,29.84,10,8,0,41,10,51,0.75,3,Fog-Rain-Thunderstorm,112
2014-8-10,87,75,62,65,63,60,94,74,41,30.17,30.11,29.95,10,10,9,18,9,25,0.01,3,Thunderstorm,359
2014-8-11,85,72,58,62,59,56,97,70,41,30.28,30.19,30.14,10,9,3,10,4,16,0.00,1,,38
2014-8-12,87,73,59,60,57,54,90,63,37,30.19,30.12,30.04,10,10,8,14,4,20,0.00,2,,98
2014-8-13,92,75,58,62,59,56,90,58,34,30.15,30.03,29.95,10,10,10,16,9,23,0.00,0,,124
2014-8-14,93,80,66,65,63,60,84,58,35,29.97,29.86,29.77,10,10,10,25,10,31,0.00,1,,129
2014-8-15,94,82,70,70,64,61,78,60,36,29.91,29.81,29.78,10,10,10,16,9,23,0.00,2,,270
2014-8-16,96,80,63,68,63,57,97,63,27,29.94,29.87,29.82,10,9,2,13,4,,0.00,0,,26
2014-8-17,100,82,63,66,61,52,90,60,25,30.00,29.89,29.75,10,10,5,20,8,25,0.00,0,,115
2014-8-18,93,77,60,66,59,55,83,59,32,29.96,29.85,29.78,10,10,10,15,7,,0.00,0,,114
2014-8-19,95,76,57,63,59,55,93,55,31,29.90,29.77,29.66,10,10,10,18,8,21,0.00,0,Thunderstorm,161
2014-8-20,98,85,72,65,62,57,76,51,29,29.73,29.68,29.63,10,10,8,15,7,22,T,1,Rain-Thunderstorm,170
2014-8-21,97,82,66,66,60,50,84,54,23,29.87,29.79,29.70,10,10,10,12,7,,0.00,0,,12
2014-8-22,92,78,64,70,66,58,96,77,37,30.03,29.92,29.83,10,7,2,24,9,36,0.74,4,Rain-Thunderstorm,23
2014-8-23,89,77,65,68,65,57,100,78,46,29.97,29.81,29.68,10,8,2,28,7,48,T,4,Rain-Thunderstorm,77
2014-8-24,87,73,59,60,53,46,93,56,25,29.93,29.86,29.77,10,10,10,10,6,,0.00,0,,13
2014-8-25,81,71,61,64,60,55,96,77,52,30.11,30.02,29.86,10,8,2,26,10,44,0.81,3,Rain-Thunderstorm,30
2014-8-26,83,72,61,68,62,58,94,83,54,30.23,30.13,30.02,10,10,3,16,9,25,1.17,4,Rain-Thunderstorm,87
2014-8-27,80,73,65,70,67,65,100,88,62,30.17,30.06,29.93,10,7,0,28,10,39,1.04,7,Fog-Rain-Thunderstorm,130
2014-8-28,84,73,61,66,61,57,100,80,41,30.04,29.91,29.81,10,8,2,25,10,34,0.37,4,Rain-Thunderstorm,277
2014-8-29,88,73,57,62,56,51,93,64,29,29.97,29.87,29.81,10,10,10,13,7,,0.00,0,,327
2014-8-30,92,75,58,60,57,54,96,62,28,29.97,29.87,29.75,10,10,7,17,6,24,0.00,0,,166
2014-8-31,83,72,61,61,58,50,90,61,36,29.81,29.73,29.67,10,10,10,20,11,25,T,0,Rain-Thunderstorm,13